SCP
0 0 0 0 0 0 0 0 0 0 0 0 0 0 0 0 0 0 0 0 0 0
0 0 0 0 0 0 0 0 0 0 0 0 0 0 0 0 0 0 0 0 0 -0
0 0 0 0 0 0 0 0 0 0 0 0 0 0 0 0 0 0 0 0 0 -0
0 0 0 0 0 0 0 0 0 0 0 0 0 0 0 0 0 0 0 0 0 0
0 0 0 0 0 0 0 0 0 0 0 0 0 0 0 0 0 0 0 0 0 0
0 0 0 0 0 0 0 0 0 0 0 0 0 0 0 0 0 0 0 0 0 0
0 0 0 0 0 0 0 0 0 0 0 0 0 0 0 0 0 0 0 0 0 0
0 0 0 0 0 0 0 0 0 0 0 0 0 0 0 0 0 0 0 0 0 0
0 0 0 0 0 0 0 0 0 0 0 0 0 0 0 0 0 0 0 0 0 0
0 0 0 0 0 0 0 0 0 0 0 0 0 0 0 0 0 0 0 0 0 0
0 0 0 0 0 0 0 0 0 0 0 0 0 0 0 0 0 0 0 0 0 0
0 0 0 0 0 0 0 0 0 0 0 0 0 0 0 0 0 0 0 0 0 0
0 0 0 0 0 0 0 0 0 0 0 0 0 0 0 0 0 0 0 0 0 0
0 0 0 0 0 0 0 0 0 0 0 0 0 0 0 0 0 0 0 0 0 0
Wind_Speed_500mb
23 17 15 17 13 9 10 9 6 4 2 3 3 2 6 7 7 8 8 17 16 16
24 21 18 20 18 15 15 10 11 8 3 3 2 2 1 5 7 7 7 9 18 18
25 23 21 17 19 17 16 13 10 7 3 3 3 2 3 5 6 6 7 11 15 20
27 24 21 18 18 16 14 13 11 7 3 4 3 4 4 4 2 7 10 14 15 19
30 27 25 22 18 17 13 11 9 9 6 3 2 6 5 5 7 10 13 15 18 21
33 30 28 25 21 17 14 11 9 7 8 5 5 6 8 9 12 15 18 21 25 28
37 33 28 24 21 19 16 15 12 10 9 11 12 10 10 12 15 20 23 28 32 38
37 32 29 25 22 19 18 14 15 13 12 12 14 13 14 15 18 24 32 36 37 39
37 33 31 27 23 20 19 17 16 15 14 15 13 21 28 28 30 34 38 41 38 37
39 34 32 28 23 21 19 17 16 16 18 19 18 26 22 26 35 42 45 46 39 30
40 36 32 28 25 22 18 17 16 16 16 17 17 25 26 30 38 40 42 48 36 21
41 37 33 29 26 21 18 15 15 15 16 17 16 24 33 39 38 37 41 37 28 34
41 37 32 27 25 23 17 14 13 14 15 19 21 26 31 40 40 28 29 28 28 33
39 34 29 27 22 20 18 14 14 15 18 22 24 29 29 26 20 20 23 24 21 8
Wind_Direction_500mb
186 173 172 155 199 177 193 210 220 158 141 13 21 353 26 358 49 36 36 28 24 8
172 177 181 187 177 195 187 223 186 196 220 330 342 223 191 353 48 45 26 331 2 353
177 178 186 183 161 189 195 181 194 199 251 312 323 207 180 345 5 25 358 351 340 341
181 179 180 181 185 190 195 196 191 220 260 312 311 195 210 201 8 325 327 332 334 332
181 182 183 180 179 175 172 183 194 217 229 263 238 201 199 258 275 302 311 316 319 327
182 184 183 181 181 182 184 194 192 221 232 233 235 222 237 259 280 290 295 299 302 304
184 186 186 185 188 189 200 211 218 225 236 234 236 245 256 268 280 290 296 295 296 299
185 186 185 185 192 198 208 211 218 229 242 241 241 260 255 268 281 289 293 297 303 305
183 185 185 187 196 201 210 211 215 228 237 240 247 257 271 276 291 298 297 299 303 307
181 184 188 189 194 205 206 210 221 232 239 242 248 269 273 286 297 303 300 296 300 305
180 184 190 188 197 203 207 215 231 245 253 242 251 268 288 293 298 303 306 308 313 310
181 184 189 191 195 209 213 220 233 243 249 241 258 279 291 296 297 301 304 296 302 297
182 185 188 191 199 209 213 221 228 243 241 250 264 274 288 296 303 305 308 312 298 287
183 181 184 188 198 200 209 212 233 230 248 264 275 292 296 309 318 308 312 314 322 315
Wind_Speed_850mb
23 17 15 17 13 9 10 9 6 4 2 3 3 2 6 7 7 8 8 17 16 16
24 21 18 20 18 15 15 10 11 8 3 3 2 2 1 5 7 7 7 9 18 18
25 23 21 17 19 17 16 13 10 7 3 3 3 2 3 5 6 6 7 11 15 20
27 24 21 18 18 16 14 13 11 7 3 4 3 4 4 4 2 7 10 14 15 19
30 27 25 22 18 17 13 11 9 9 6 3 2 6 5 5 7 10 13 15 18 21
33 30 28 25 21 17 14 11 9 7 8 5 5 6 8 9 12 15 18 21 25 28
37 33 28 24 21 19 16 15 12 10 9 11 12 10 10 12 15 20 23 28 32 38
37 32 29 25 22 19 18 14 15 13 12 12 14 13 14 15 18 24 32 36 37 39
37 33 31 27 23 20 19 17 16 15 14 15 13 21 28 28 30 34 38 41 38 37
39 34 32 28 23 21 19 17 16 16 18 19 18 26 22 26 35 42 45 46 39 30
40 36 32 28 25 22 18 17 16 16 16 17 17 25 26 30 38 40 42 48 36 21
41 37 33 29 26 21 18 15 15 15 16 17 16 24 33 39 38 37 41 37 28 34
41 37 32 27 25 23 17 14 13 14 15 19 21 26 31 40 40 28 29 28 28 33
39 34 29 27 22 20 18 14 14 15 18 22 24 29 29 26 20 20 23 24 21 8
Wind_Direction_850mb
186 173 172 155 199 177 193 210 220 158 141 13 21 353 26 358 49 36 36 28 24 8
172 177 181 187 177 195 187 223 186 196 220 330 342 223 191 353 48 45 26 331 2 353
177 178 186 183 161 189 195 181 194 199 251 312 323 207 180 345 5 25 358 351 340 341
181 179 180 181 185 190 195 196 191 220 260 312 311 195 210 201 8 325 327 332 334 332
181 182 183 180 179 175 172 183 194 217 229 263 238 201 199 258 275 302 311 316 319 327
182 184 183 181 181 182 184 194 192 221 232 233 235 222 237 259 280 290 295 299 302 304
184 186 186 185 188 189 200 211 218 225 236 234 236 245 256 268 280 290 296 295 296 299
185 186 185 185 192 198 208 211 218 229 242 241 241 260 255 268 281 289 293 297 303 305
183 185 185 187 196 201 210 211 215 228 237 240 247 257 271 276 291 298 297 299 303 307
181 184 188 189 194 205 206 210 221 232 239 242 248 269 273 286 297 303 300 296 300 305
180 184 190 188 197 203 207 215 231 245 253 242 251 268 288 293 298 303 306 308 313 310
181 184 189 191 195 209 213 220 233 243 249 241 258 279 291 296 297 301 304 296 302 297
182 185 188 191 199 209 213 221 228 243 241 250 264 274 288 296 303 305 308 312 298 287
183 181 184 188 198 200 209 212 233 230 248 264 275 292 296 309 318 308 312 314 322 315